OneWeb SL0558

operational
NORAD ID: 56059 Int'l Des: 2023-043 Owner: ONEWEBN Country: UK Constellation: oneweb
LEOCIRCULARPOLARONEWEB_TYPE

About OneWeb SL0558

Description loading...

Live Position

Loading 3D Globe...

Upcoming Passes

Altitude History

Altitude vs Time

uPlot chart will show altitude changes over time

Two-Line Element Set

1 56059U 23043P 25303.93239705 .00000059 00000-0 11131-3 0 9992
2 56059 87.9166 289.7228 0002445 92.1213 268.0201 13.21828925127959
Epoch: Oct 30, 2025 • Age: 10 hours

Current Status

Altitude 1189.6 km
Velocity 7.27 km/s
Sub-Earth Point 83.83°N, 68.96°W
Launch Date Mar 26, 2023
Age 2.6 years
Type internet

Technical Details

Classification Payload
Mass 148.00 kg
Dry Mass 140.00 kg
Total Mass 148.00 kg
Length 1.30 m
Diameter 1.00 m
Span 5.00 m
Shape Trapezoid+2 pan
Manufacturer ONEWUS
Bus Type ARROW
Phase Status In Orbit
Owner/State ONEWEBN/UK

Large Constellations

Loading constellations...